AQI (124)

Current Conditions for Foresthill, CA. Sunny, Dry   
Visibility: 10 miles
Space WX Alerts: EXTENDED WARNING:  Geomagnetic K-index of 4 expected ( Latest Alert ) - Issue Time: 2020 Sep 30 0850 UTC

  Summary / Temperature 

Current Temperature
91.9°F
33.3°C
(24/hr Ago)
90.8°F
(Apparent temp)
86.7°F
Uncomfortably Hot
Heat Index
87.8°F 

91.9°F/ 33.3°C
Noticeable discomfort

 Temp Rate:

 24/hr Difference:

 Avg Running Temp:

 Todays High:

 Todays Low:

 Y-days High:

 Y-days Low:

 Todays HeatIdx:

 Y-days HeatIdx:

 Evapotranspiration:

-0.2°F/hr 

+1.1°F

92.5°F

94.0°F 1:41pm

68.5°F 7:17am

92.1°F 2:22pm

69.4°F 7:05am

89.8°F 1:41pm

88.3°F 2:22pm

0.138 in

115' Above Ground

 Temperature:

 6'AGL VRS 115'AGL:

 Avg Running Temp:

 Humidity:

 Todays High:

 Todays Low:

 Y-days High:

 Y-days Low:

90.0°F 

-1.9°F

90.3°F

18% 

91.0°F 1:10pm

84.0°F 12:00am

90.0°F 2:26pm

77.0°F 9:55am

Temp & Humidity Graphs

  Wind 

Wind Speed

 5.0 mph

Gusting to

 14.0 mph

Wind from NW

313°  NW

Light breeze

 Avg speed:

 Wind Run:

 Peak Gust:

  5.0 mph 

51.0 miles

  17.0 mph 1:13pm

  Almanac  

Moon age: 13 days,22 hours,10 minutes,99%

Waxing Gibbous
99%
Illuminated
13 days in cycle

 Moonrise:

 Moonset:

 Sunrise:

 Sunset:

 Solar Noon:

6:44pm

5:41am

7:00am

6:47pm

12:53pm

2min 31s less daylight tomorrow 

  Solar Radiation 

(Current Solar)
  388 W/m2 (71%)
(Todays High)
 666 W/m2@12:54pm
Feels like: 99.1°F in the sun

Rain

 Rain Today:

 Rain Rate (/hr):

 Rain last hour:

 Rain Yesterday:

 This Month:

 Season Total:

44 Days Since Last Rain Day

0.00 in

0.000 in

0.00 in

0.00 in

0.00 in

0.01 in

Updated Time

Updated: 9/30/20  3:45pm

(Updated  sec ago)

Humidity & Barometer

 Humidity:

 Wetbulb:

 Dew Point:

 Barometer:

16% 

67.7°F 

39.3°F 

30.002 inHg 

 Baro Trend:  Falling Slowly 
Northern Calif
Preparedness
Fire 
Level 

    UV Index  

(Current UV)
1.2  Low
(Todays High) @ 12:11pm
3.4   Medium

National Weather Service Forecast

Tonight

Mostly Clear
Mostly Clear
Thursday

Mostly Sunny
Mostly Sunny
Thursday
Night
Mostly Clear
Mostly Clear
Friday

Mostly Sunny
Mostly Sunny
Friday
Night
Mostly Clear
Mostly Clear
Saturday

Mostly Sunny
Mostly Sunny
Lo ≈68°F Hi ≈93°F Lo ≈67°F Hi ≈92°F Lo ≈64°F Hi ≈88°F

Foresthill Probe 2 Stats  
Foresthill Probe 2: is located on Thomas Street
at 3000 feet. The main Foresthill Weather site
is located on Melody ln at the 2860 foot elevation

Calm
88.4°F
31.3°C
Temp Rate:
-0.2°F
Calm
Gusting to
4.0 mph
(Humidity)
19%
Wind from NW
309°  NW
Updated: 30/09/20 - 15:45:31
 Todays High: 90.8°F 14:22
 Todays Low: 65.8°F 07:02
 Rain Today: 0.00 in
 Season Total: 0.01 in

Foresthill Wx: Monthly,Yearly, Highs and Lows 

Foresthill  
This Weather Data is coming from the main Foresthill
Weather site located on Melody ln at the 2860 foot
elevation
Not Foresthill Probe 2
Weather Data
Month
  High
Month
  Low
Year
High
Year
Low
Temp 101.7°F
9/6/20
56.1°F
9/19/20
101.8°F
8/15/20
28.3°F
2/3/20
Humidity 72%
9/18/20
6%
9/8/20
100%
1/8/20
6%
9/8/20
Heat Index 98.9°F
9/6/20
58.9°F
9/19/20
101.7°F
8/17/20
28.2°F
2/4/20
Wind Chill 101.7°F
9/6/20
53.0°F
9/19/20
101.8°F
8/15/20
14.7°F
2/3/20
Wind Gust 38 mph
9/8/20
0 mph
9/1/20
46 mph
2/9/20
0 mph
1/1/20
Barometer 30.09 in
9/30/20
29.59 in
9/8/20
30.59 in
1/5/20
29.57 in
6/28/20
ET 0.29 in
9/8/20
0.00 in
9/1/20
0.31 in
6/27/20
0.00 in
1/1/20
Dew Point 58.4°F
9/5/20
12.4°F
9/8/20
67.5°F
6/26/20
-2.6°F
2/3/20
Visible Satellite Pacific Satellite US Radar Satellite Imagery Sacramento,CA.  (click to enlarge)
NWS Weather Forecast - Summary
Updated: Wednesday, Sepember 30, 2020 - 3:07pm PDT
Locally Gusty Wind and Low Humidity Tonight into Thursday Morning in the Northeast Foothills and West Slopes of the Sierra Nevada Poor Humidity Recoveries over the Foothills through this Week
NWS Weather Forecast: Tonight and Thursday (Updated: Wed, 30-Sep-2020 1:50pm PDT)
Tonight

Mostly Clear
Mostly Clear
Lo ≈68°F
NWS forecast: Mostly clear. Haze and areas of smoke. Lows 63 to 73. Prevailing northwest winds 5 to 15 mph shifting to the east after midnight.
Thursday

Mostly Sunny
Mostly Sunny
Hi ≈93°F
NWS forecast: Mostly sunny. Haze. Highs 89 to 97. Prevailing east winds 5 to 15 mph shifting to the southwest in the afternoon.
YR.NO 10 Day Weather forecast
Last update: 09/30/2020 @ 06:05
Next update: 09/30/2020 @ 12:07
Provided by: 22
      Temperature Precipitation Pressure Wind  
Today
09/30/2020
13:00 18:00 93°F   30.05 inHg Gentle breeze from west-northwest 8 mph
  18:00 00:00 86°F   30.01 inHg Light breeze from west-northwest 6 mph
    (Click to enlarge)
meteogram

    Forecast for next 9 days

      Temperature Precip Pressure Wind  
Thursday
10/01/2020
00:00 06:00 64°F   30.03 inHg Gentle breeze from east-northeast 8 mph
  06:00 12:00 66°F   30.00 inHg Gentle breeze from east-northeast 9 mph
  12:00 18:00 93°F   29.99 inHg Light breeze from west-southwest 6 mph
  18:00 00:00 86°F   29.95 inHg Light air from west-southwest 3 mph
      Temperature Precip Pressure Wind  
Friday
10/02/2020
00:00 06:00 63°F   29.98 inHg Light breeze from east-northeast 5 mph
  06:00 12:00 57°F   29.98 inHg Light breeze from east-northeast 7 mph
  12:00 18:00 91°F   29.96 inHg Light breeze from west 6 mph
  17:00 23:00 90°F   29.89 inHg Light breeze from west 6 mph
  23:00 05:00 63°F   29.91 inHg Light breeze from east-northeast 5 mph
      Temperature Precip Pressure Wind  
Saturday
10/03/2020
05:00 11:00 57°F   29.88 inHg Light breeze from east-northeast 7 mph
  11:00 17:00 86°F   29.88 inHg Light breeze from west-southwest 5 mph
  17:00 23:00 84°F   29.83 inHg Light breeze from west-southwest 4 mph
  23:00 05:00 59°F   29.86 inHg Light breeze from east-northeast 4 mph
      Temperature Precip Pressure Wind  
Sunday
10/04/2020
05:00 11:00 55°F   29.86 inHg Light breeze from east-northeast 6 mph
  11:00 17:00 84°F   29.88 inHg Light breeze from southwest 5 mph
  17:00 23:00 82°F   29.86 inHg Light breeze from west-southwest 5 mph
  23:00 05:00 59°F   29.91 inHg Light breeze from east 6 mph
      Temperature Precip Pressure Wind  
Monday
10/05/2020
05:00 11:00 59°F   29.92 inHg Light breeze from east 7 mph
  11:00 17:00 84°F   29.98 inHg Light breeze from southwest 6 mph
  17:00 23:00 81°F   29.95 inHg Light breeze from west 5 mph
  23:00 05:00 61°F   30.03 inHg Light air from east-northeast 2 mph
      Temperature Precip Pressure Wind  
Tuesday
10/06/2020
05:00 11:00 52°F   30.01 inHg Light breeze from east-northeast 5 mph
  11:00 17:00 81°F   30.01 inHg Light breeze from west 4 mph
  17:00 23:00 77°F   29.97 inHg Light breeze from west-southwest 4 mph
  23:00 05:00 59°F   29.99 inHg Light air from east 2 mph
      Temperature Precip Pressure Wind  
Wednesday
10/07/2020
05:00 11:00 48°F   29.93 inHg Light breeze from east 4 mph
  11:00 17:00 70°F   29.96 inHg Light breeze from west-southwest 5 mph
  17:00 23:00 70°F   29.90 inHg Light breeze from southwest 6 mph
  23:00 05:00 54°F   29.98 inHg Light air from south-southeast 3 mph
      Temperature Precip Pressure Wind  
Thursday
10/08/2020
05:00 11:00 50°F   29.99 inHg Light air from south-southeast 3 mph
  11:00 17:00 59°F   30.05 inHg Light breeze from southwest 5 mph
  17:00 23:00 61°F   30.00 inHg Light breeze from southwest 6 mph
  23:00 05:00 54°F 0.40 in 30.03 inHg Light breeze from south-southwest 4 mph
      Temperature Precip Pressure Wind  
Friday
10/09/2020
05:00 11:00 50°F 0.30 in 29.99 inHg Light breeze from south-southeast 7 mph
How Close Are We To this Month's Temperature Record ?
Updated Wednesday, Sep 30, 2020- 3:45:00 PM

Current Temperature: 91.9°F

September's High: Temperature Record 101.7°F - Set on Sun, Sep 6, 2020 - 4:55:59 PM
We are currently 9.8°F Less than this Month's record High

September's Low: Temperature Record 38.1°F - Set on Sun, Sep 29, 2019 - 7:08:00 AM
We are currently 53.8°F More than this Month's record Low

Weather History For Wednesday, September 30, 2020


On this Day - In Weather History ...
Data courtesy of weatherforyou.com
powered by Cumulus v1.9.3 (1059)
Ambient Weather VWS v14.00
Top Website Map Copyright © 2007 - 2020 Foresthillweather.com Never base important decisions on this or any weather information obtained from the Internet